Simultaneous Nadir Overpasses (SNOs) Predictions

Prediction of SNOs between GOES-17 and TERRA Satellite Orbit:

Table of predicted SNOs for the next 14.0 days since TLE Epoch: 9/21/2024
Index Date Time (GOES-17) GOES-17 Lat,Lon TERRA Lat,Lon Distance(km) Time Diff (sec)
1 09/22/2024 04:41:28 0.01,-104.68 -0.00,-104.78 11.25 80
2 09/24/2024 04:21:00 -0.02,-104.67 0.86,-100.48 476.32 80
3 09/24/2024 16:40:48 0.02,-104.72 0.16,-105.29 65.36 80
4 09/26/2024 16:25:40 0.02,-104.72 -0.75,-101.00 422.21 80
5 09/27/2024 04:45:38 -0.02,-104.67 -0.27,-105.86 135.27 80
6 09/29/2024 04:25:09 0.00,-104.67 0.63,-101.56 352.43 80
7 09/29/2024 16:44:57 -0.00,-104.72 0.37,-106.38 189.20 80
8 10/01/2024 16:29:48 -0.01,-104.73 -0.57,-102.09 299.85 80
9 10/02/2024 04:49:44 0.01,-104.68 -0.47,-106.94 256.81 80
10 10/04/2024 04:29:14 0.02,-104.69 0.47,-102.64 232.54 80
11 10/04/2024 16:49:02 -0.02,-104.74 0.53,-107.46 309.29 80
